This is the latest recevied weather packets stored in our database for station/object K1RFS. If no packets are shown the sender has not sent any weather packets the latest 10 day(s).
| Time | Temp. | Humidity | Pressure | Rain* | Wind** | Luminosity | Snow |
|---|---|---|---|---|---|---|---|
| 1788637786 | 29.44° C | 20% | 1002.4 hPa | 0 mm | - | 584 W/m² | - |
| 1788637485 | 29.44° C | 19% | 1002.6 hPa | 0 mm | - | 585 W/m² | - |
| 1788637181 | 29.44° C | 20% | 1002.5 hPa | 0 mm | - | 585 W/m² | - |
| 1788636880 | 29.44° C | 20% | 1002.6 hPa | 0 mm | - | 586 W/m² | - |
| 1788636576 | 29.44° C | 19% | 1002.6 hPa | 0 mm | - | 586 W/m² | - |
| 1788636271 | 30° C | 20% | 1002.9 hPa | 0 mm | - | 585 W/m² | - |
| 1788635966 | 30° C | 20% | 1002.6 hPa | 0 mm | - | 584 W/m² | - |
| 1788635660 | 29.44° C | 19% | 1003 hPa | 0 mm | - | 583 W/m² | - |
| 1788635360 | 29.44° C | 16% | 1003.1 hPa | 0 mm | - | 582 W/m² | - |
| 1788635057 | 28.89° C | 20% | 1002.9 hPa | 0 mm | - | 578 W/m² | - |
| 1788634756 | 29.44° C | 20% | 1003.1 hPa | 0 mm | - | 576 W/m² | - |
| 1788634452 | 29.44° C | 18% | 1003.1 hPa | 0 mm | - | 575 W/m² | - |
| 1788634151 | 28.89° C | 16% | 1003.2 hPa | 0 mm | - | 572 W/m² | - |
| 1788633851 | 28.33° C | 16% | 1003.4 hPa | 0 mm | - | 570 W/m² | - |
| 1788633549 | 28.33° C | 17% | 1003.6 hPa | 0 mm | - | 565 W/m² | - |
| 1788633250 | 28.33° C | 16% | 1003.4 hPa | 0 mm | - | 560 W/m² | - |
| 1788632939 | 27.78° C | 16% | 1003.6 hPa | 0 mm | - | 557 W/m² | - |
| 1788632638 | 27.78° C | 16% | 1003.7 hPa | 0 mm | - | 552 W/m² | - |
| 1788632335 | 27.78° C | 17% | 1003.7 hPa | 0 mm | - | 548 W/m² | - |
| 1788632034 | 27.78° C | 18% | 1003.8 hPa | 0 mm | - | 544 W/m² | - |
| 1788631734 | 27.78° C | 17% | 1003.7 hPa | 0 mm | - | 539 W/m² | - |
| 1788631448 | 27.78° C | 17% | 1003.9 hPa | 0 mm | - | 532 W/m² | - |
| 1788631123 | 27.22° C | 18% | 1003.6 hPa | 0 mm | - | 525 W/m² | - |
| 1788630817 | 26.67° C | 18% | 1003.7 hPa | 0 mm | - | 33 W/m² | - |
| 1788630513 | 26.67° C | 19% | 1003.7 hPa | 0 mm | - | 32 W/m² | - |
* Rain latest hour (hover to see other rain measurements)
** Current wind speed in m/s (hover to see current wind gust speed)